Regional Weather Roundup
Issued by NWS

Home | Current Version | Previous Version | Graphics & Text | Print | Product List | Glossary On
Versions: 1 2 3 4 5 6 7 8 9 10 11 12 13 14 15 16 17 18 19 20 21 22 23 24 25 26 27 28 29 30 31 32 33 34 35 36 37 38 39 40 41 42 43 44 45 46 47 48 49 50
455
ASUS45 KSLC 301210
RWRUT

UTAH REGIONAL WEATHER ROUNDUP
NATIONAL WEATHER SERVICE SALT LAKE CITY UT
600 AM MDT TUE MAY 30 2017

UTZ001>011-023>025-301300-

NORTHERN UTAH

CITY           SKY/WX    TMP DP  RH WIND       PRES   REMARKS
BRIGHAM CITY   CLEAR     55  39  54 CALM      30.08R
HILL AFB       CLEAR     55  37  50 E18G24    30.09R
LOGAN          CLEAR     50  43  77 CALM      30.11S
OGDEN          CLEAR     54  38  54 S9        30.07R
SALT LAKE CITY CLEAR     62  40  44 SE8       30.06R
TOOELE VALLEY  CLEAR     55  36  47 S13       30.07S
WENDOVER       PTCLDY    57  33  40 CALM      30.06S
HEBER CITY     CLEAR     41  36  81 CALM      30.18R
WEST JORDAN    CLEAR     53  44  71 SW5       30.09S

$$

UTZ011>015-024>027-301300-

CENTRAL/NORTHEAST UTAH

CITY           SKY/WX    TMP DP  RH WIND       PRES   REMARKS
PROVO AIRPORT  CLEAR     50  40  68 CALM      30.11R
MOAB/CANYONLAN CLEAR     59  27  29 SW5       30.07R
DELTA          PTCLDY    45  34  65 E5        30.09R
PRICE          CLEAR     55  29  36 VRB3      30.16R
ROOSEVELT      CLEAR     45  37  76 W6        30.20S
VERNAL         CLEAR     54  34  46 NW6       30.17S

$$

UTZ013>016-019>022-027-301300-

SOUTHERN UTAH

CITY           SKY/WX    TMP DP  RH WIND       PRES   REMARKS
BRYCE CANYON   MOCLDY    38  27  64 CALM      30.26S
CEDAR CITY     MOCLDY    46  27  47 CALM      30.11R
MILFORD        PTCLDY    44  24  45 CALM      30.09R
ST GEORGE      SUNNY     65  28  24 SE3       29.93R
HANKSVILLE     CLEAR     48  10  21 CALM      30.10R
BLANDING       CLEAR     53  22  31 NE6       30.25S

$$

REGIONAL REPORTS     COLORADO/ARIZONA

CITY           SKY/WX    TMP DP  RH WIND       PRES   REMARKS
CRAIG, CO      CLEAR     36  31  82 CALM      30.25S
GRAND JUNCTION CLEAR     55  32  41 SE15      30.14R
RIFLE, CO      CLEAR     45  31  58 CALM      30.22R
MONTROSE, CO   CLEAR     44  30  57 SE6       30.22R
CORTEZ, CO     CLEAR     38  32  79 CALM      30.20R
COLORADO CITY    N/A     70  27  19 NE13      30.06F
PAGE, AZ       PTCLDY    64  23  21 SE3       30.04R
GRAND CANYON   PTCLDY    38  27  64 CALM      30.18S
KINGMAN, AZ    PTCLDY    65  20  17 S7        29.93S
FLAGSTAFF, AZ  PTCLDY    39  24  55 NE5       30.21R

$$

REGIONAL REPORTS    NEVADA/IDAHO/WYOMING

CITY           SKY/WX    TMP DP  RH WIND       PRES   REMARKS
LAS VEGAS, NV  MOCLDY    77  22  13 CALM      29.82R
ELY, NY        PTCLDY    38  25  59 S13       30.17S WCI  30
ELKO, NV       CLEAR     44  35  70 W3        30.08S
POCATELLO, ID  CLEAR     43  38  82 CALM      30.11R
BURLEY, ID     CLEAR     48  43  82 CALM      30.06S
FORT BRIDGER,    N/A     43  34  70 CALM      30.29S
EVANSTON, WY   CLOUDY    45  35  68 E8        30.26R
ROCK SPRINGS,  CLEAR     46  32  58 E7        30.25F
KEMMERER, WY     N/A     41  32  70 N10       30.28S

$$




USA.gov is the U.S. government's official web portal to all federal, state and local government web resources and services.